Weather in Chupriyanovka

Russia / Tver Oblast     56°45′24″N   36°02′26″E
temp.,
°C
wind,
m/s
gust,
m/s
humid.,
%
clouds,
%
prec.,
mm/h
press.,
hPa
HPBL,
m
4 july, mon
mon400:00+16nne3383100 0.3 101733
03:00+15nw1184100 0.3 101711
06:00+18nnw1187100 0.1 101748
09:00+22ene1272100 0.1 1017259
12:00+26ene1151100 0.0 1016678
15:00+28nw1143100 0.0 10151119
18:00+28ese12498 0.0 1014659
21:00+17nw389390 1.0 1016196
5 july, tue
tue500:00+16sw018895 0.6 101511
03:00+15sw228922 0.6 101611
06:00+17s118798 0.0 101557
09:00+21s227699 0.1 1016260
12:00+27s2351100 0.0 10141064
15:00+28ssw4547100 0.0 10141867
18:00+28sw575097 0.0 10131220
21:00+20ssw227198 0.1 101336
6 july, wed
wed600:00+17sw1293100 0.9 101414
03:00+16w2294100 0.9 101416
06:00+18wnw239292 0.0 1015120
09:00+22nw227079 0.0 1014442
12:00+26nne115241 0.0 10141259
15:00+24s356379 0.1 1013343
18:00+22wnw467795 0.2 1011354
21:00+19nne2290100 0.4 101121
7 july, thu
thu700:00+17wnw1199100 6.1 101044
03:00+18sw3898100 11.3 1010533
06:00+15wnw5994100 0.1 1012477
09:00+18wnw457178 0.1 1014678
12:00+22wnw3351100 0.0 10151331
15:00+24w234573 0.0 10151783
18:00+24wnw2254100 0.0 10151296
21:00+19w2372100 0.0 101541
8 july, fri
fri800:00+15wnw228027 0.0 101620
03:00+14nnw118090 0.0 101611
06:00+16wnw1176100 0.0 101755
09:00+20nw235964 0.0 1016503
12:00+23wnw2249100 0.0 10161396
15:00+24wnw234297 0.0 10161663
18:00+24wnw234698 0.0 10151237
21:00+18nw226873 0.0 101525